Location: Ottawa
(45.4167°N, 75.7000°W)
Time: 11:58:10
(UTC-05:00)

OTV 5 (USA 277) - Pass Details

Date: 15 October 2017
Orbit: 404 x 417 km, 43.0° (Epoch: 07 September)

Event Time Altitude Azimuth Distance (km) Brightness Sun altitude
Rises 20:19:11 0° 268° (W) 2,355 ? -22.2°
Reaches altitude 10° 20:21:19 10° 264° (W) 1,492 ? -22.5°
Enters shadow 20:23:45 40° 237° (WSW) 629 ? -23.0°
